THORAD AGENA D DEB, 4710

Orbit data source: Space-Track

THORAD AGENA D DEB, 4710 is space debris in SSO originally from a launch on Wed, 08 Apr 1970 UTC launched from the Air Force Western Test Range (AFWTR). Debris objects in space refer to the collection of defunct objects orbiting the Earth. Examples of debris include non-operational satellites, rocket bodies, and fragments generated from explosions, collisions, or faulty payload assembly.

Loading next visibility...
Identifier
4710, 1970-025BY
Orbit
SSO
Country
Flag of USUS
Related business
Manufacturer
Unknown
Mission
Spacecraft
Bus & Motor
Unknown
Mass
Unknown
Launch date (UTC)
1970-04-08 (56 years ago)
Launch vehicle
Unknown
Launch site
Air Force Western Test Range (AFWTR)
Object type
Payload
Rocket body
Debris
Shape & HBR
Unknown shape, 0.1 m
Radar Cross Section
Small (<0.1 m²)

Expand to show TLE details & history
Last TLE update: 7 hours ago

TLE from 7 hours ago
0 THORAD AGENA D DEB
1 04710U 70025BY  26034.24707471  .00000162  00000-0  30054-3 0  9997
2 04710 100.1862  43.2092 0005227 140.3645 281.7316 13.55926598755380
Epoch: 2026-02-03T05:55Z
TLE epoch observation values (Epoch: 2026-02-03T05:55:47.254Z)
Latitude
60.47544°
Longitude
162.43255°
Altitude
1,059.949 km
Speed
7.328 km/s
True Right ascension
01h 39m 14s
True Declination
60° 20' 01"
Sunlit
Object was in daylight at epoch
Visualization orbit readout
Latitude
Unknown
Longitude
Unknown
Altitude
Unknown
Speed
Unknown
Apparent Right ascension
Unknown
Apparent Declination
Unknown
Sunlit
N/A
Visualization observer readout
Local Sidereal Time
14:57:19
Azimuth
Unknown
Elevation
Unknown
Doppler factor
Unknown
Orbital elements
Apogee altitude
1,051.733 km
Perigee altitude
1,043.97 km
Semi-major axis
7,425.989 km
Eccentricity
0.00052
Inclination
100.1862°
RAAN
43.2092°
Arg. of periapsis
140.3645°
True anomaly
281.67295°
Mean anomaly
281.7316°
Eccentric anomaly
281.70227°
Mean motion
3.39166 °/min
Orbital period
106.14 mins
BSTAR
0.00030054
Loading maneuver chart data...
Computing Atmospheric mass density...

Documentation

Showing up to 5 results
|